Home > Time Zones > World Clock > Weather > Italy > Rome > Past weeks

Flag for Italy Weather past 2 weeks in Rome, Italy

Now
52 °F

Clear.


Feels Like: 52 °F
Forecast: 49 / 69 °F
Wind: No wind

Location: Rome / Ciampino

Current Time: Mar 30, 2015 at 12:28:15 AM

Latest Report: Mar 29, 2015 at 11:45 PM


Visibility: 10 mi

Pressure: 29.92 "Hg

Humidity: 82%

Dew point: 46 °F

Location of RomeLocation

Historic Weather in Rome — Graph

°F

Rome temperature yesterday

Maximum temperature yesterday: 64 °F (at 1:45 PM)
Minimum temperature yesterday: 43 °F (at 4:15 AM)
Average temperature yesterday: 54 °F

Past Weeks' High & Low Weather Summary

 TemperatureHumidityPressure
High66 °F (Mar 24, 12:15 PM)94% (Mar 16, 8:45 AM)30.21 "Hg (Mar 16, 8:45 AM)
Low41 °F (Mar 15, 4:45 AM)24% (Mar 29, 1:15 PM)29.33 "Hg (Mar 25, 8:45 AM)
Average53 °F72%29.94 "Hg
* Reported Mar 14 9:15 PM — Mar 29 10:45 PM, Rome, Weather by CustomWeather, © 2015

Note: Actual official high and low records may vary slightly from our data, if they occured in-between our weather recording intervals... More about our weather records

Advertising

Rome weather history for previous 24 hours

 ConditionsComfort  
Time TempWeatherWind HumidityBarometerVisibility
10:45 PM
Sun, Mar 29
54 °FClear.No wind77%29.92 "Hg10 mi
10:15 PM55 °FClear.No wind77%29.92 "Hg10 mi
9:45 PM57 °FClear.No wind72%29.92 "Hg10 mi
9:15 PM57 °FClear.No wind77%29.92 "Hg10 mi
8:45 PM57 °FPassing clouds.No wind72%29.92 "HgN/A
8:15 PM57 °FScattered clouds.No wind77%29.89 "HgN/A
7:45 PM59 °FScattered clouds.2 mph72%29.89 "HgN/A
7:15 PM61 °FScattered clouds.1 mph68%29.89 "HgN/A
6:45 PM61 °FSunny.2 mph55%29.89 "Hg10 mi
6:15 PM61 °FPassing clouds.5 mph48%29.89 "HgN/A
5:45 PM63 °FPassing clouds.8 mph34%29.89 "HgN/A
5:15 PM63 °FPassing clouds.8 mph34%29.89 "HgN/A
4:45 PM63 °FSunny.8 mph34%29.89 "Hg10 mi
4:15 PM64 °FPassing clouds.7 mph34%29.89 "HgN/A
3:45 PM64 °FPassing clouds.8 mph34%29.89 "HgN/A
3:15 PM64 °FPassing clouds.8 mph40%29.92 "HgN/A
2:45 PM64 °FPassing clouds.8 mph40%29.92 "HgN/A
2:15 PM64 °FPassing clouds.8 mph34%29.92 "HgN/A
1:45 PM64 °FPassing clouds.6 mph30%29.92 "HgN/A
1:15 PM63 °FPassing clouds.6 mph24%29.92 "HgN/A
12:45 PM61 °FSunny.3 mph27%29.92 "Hg10 mi
12:15 PM59 °FSunny.1 mph31%29.95 "Hg10 mi
11:45 AM55 °FSunny.2 mph36%29.95 "Hg10 mi
11:15 AM55 °FSunny.1 mph41%29.95 "Hg10 mi
10:45 AM55 °FSunny.3 mph44%29.95 "Hg10 mi
10:15 AM50 °FSunny.5 mph47%29.95 "Hg10 mi
9:45 AM46 °FPassing clouds.6 mph53%29.95 "HgN/A
9:15 AM46 °FPassing clouds.5 mph57%29.95 "HgN/A
8:45 AM46 °FScattered clouds.5 mph57%29.92 "HgN/A
8:15 AM45 °FScattered clouds.6 mph66%29.92 "HgN/A
7:45 AM45 °FPassing clouds.2 mph57%29.89 "HgN/A
7:15 AM45 °FPassing clouds.7 mph57%29.89 "HgN/A
6:45 AM43 °FPassing clouds.7 mph61%29.89 "HgN/A
6:15 AM43 °FPassing clouds.6 mph66%29.92 "HgN/A
5:45 AM43 °FPassing clouds.6 mph66%29.92 "HgN/A
5:15 AM43 °FPassing clouds.5 mph61%29.92 "HgN/A
4:45 AM43 °FPassing clouds.5 mph57%29.92 "HgN/A
4:15 AM43 °FPassing clouds.3 mph57%29.92 "HgN/A
3:45 AM45 °FPassing clouds.5 mph49%29.92 "HgN/A
3:15 AM45 °FPassing clouds.5 mph49%29.92 "HgN/A
1:15 AM46 °FClear.6 mph46%29.92 "Hg10 mi
12:15 AM48 °FPassing clouds.8 mph40%29.92 "HgN/A
Weather by CustomWeather, © 2015

See weather overviewHow to use our weather pages